Location: Newark
(7.0858°N, 171.3717°E)
Time: 13:32:49
(UTC+00:00)

Courier 1B Rocket - Pass Details

Date: 27 November 2020
Orbit: 920 x 1202 km, 28.2° (Epoch: 20 January)

Event Time Altitude Azimuth Distance (km) Brightness Sun altitude
Rises 18:11:07 0° 278° (W) 4,082 - -5.2°
Exits shadow 18:12:52 - 283° (WNW) 3,588 7.3 -4.8°
Reaches altitude 10° 18:14:39 10° 291° (WNW) 3,126 7.0 -4.4°
Maximum altitude 18:20:38 24° 342° (NNW) 2,262 6.6 -3.0°
Drops below altitude 10° 18:26:33 10° 32° (NNE) 3,078 7.8 -1.6°
Sets 18:30:01 0° 46° (NE) 4,005 8.6 -0.8°
